Weather History for KHBR - September, 2013

Change the Weather History Date:

Sunday, September 1, 2013

  Actual Average Record
Temperature  
Mean Temperature 85 °F -  
Max Temperature 99 °F 90 °F 107 °F (2000)
Min Temperature 73 °F 66 °F 63 °F (2004)
Cooling Degree Days 20    
Growing Degree Days 35 (Base 50)    
Moisture  
Dew Point 59 °F    
Average Humidity 44    
Maximum Humidity 68    
Minimum Humidity 29    
Precipitation  
Precipitation 0.00 in - - ()
Sea Level Pressure  
Sea Level Pressure 29.84 in    
Wind  
Wind Speed 9 mph (East)    
Max Wind Speed 20 mph    
Max Gust Speed -    
Visibility 10 miles    
Events      
Averages and records for this station are not official NWS values.
T = Trace of Precipitation, MM = Missing Value Source: NWS Daily Summary

Daily Weather History Graph

Daily Weather History Graph

Search for Another Location

Airport or City:

Trip Planner

Search our weather history database for the weather conditions in past years. The results will help you decide how hot, cold, wet, or windy it might be!

Date:

Astronomy

Sep. 01, 2013 Rise Set
Actual Time 7:09 AM CDT 8:02 PM CDT
Civil Twilight 6:43 AM CDT 8:28 PM CDT
Nautical Twilight 6:12 AM CDT 8:58 PM CDT
Astronomical Twilight 5:41 AM CDT 9:30 PM CDT
Moon 3:37 AM CDT (9/1) 5:36 PM CDT (9/1)
Length of Visible Light 13h 44m
Length of Day
12h 53m
Waning Crescent, 13% of the Moon is Illuminated
Sep 1
Waning Crescent
Sep 5
New
Sep 12
First Quarter
Sep 19
Full
Sep 26
Last Quarter

Hourly Weather History & Observations

Time (CDT) Temp. Heat Index Dew Point Humidity Pressure Visibility Wind Dir Wind Speed Gust Speed Precip Events Conditions
12:53 AM 79.0 °F - 54.0 °F 42% 29.78 in 10.0 mi Calm Calm - N/A   Clear
1:53 AM 79.0 °F - 53.1 °F 40% 29.77 in 10.0 mi SSW 8.1 mph - N/A   Clear
2:53 AM 78.1 °F - 53.1 °F 42% 29.78 in 10.0 mi South 11.5 mph - N/A   Clear
3:53 AM 73.9 °F - 54.0 °F 50% 29.78 in 10.0 mi SW 5.8 mph - N/A   Clear
4:53 AM 75.9 °F - 54.0 °F 46% 29.78 in 10.0 mi South 9.2 mph - N/A   Clear
5:53 AM 75.9 °F - 55.9 °F 50% 29.79 in 10.0 mi SW 4.6 mph - N/A   Clear
6:53 AM 75.0 °F - 54.0 °F 48% 29.81 in 10.0 mi Calm Calm - N/A   Clear
7:53 AM 78.1 °F - 55.0 °F 45% 29.82 in 10.0 mi ESE 5.8 mph - N/A   Clear
8:53 AM 86.0 °F 84.7 °F 55.9 °F 36% 29.83 in 10.0 mi East 8.1 mph - N/A   Clear
9:53 AM 91.9 °F 90.3 °F 55.9 °F 30% 29.84 in 10.0 mi East 17.3 mph - N/A   Clear
10:53 AM 93.9 °F 94.0 °F 61.0 °F 33% 29.86 in 10.0 mi NE 18.4 mph - N/A   Clear
11:53 AM 96.1 °F 96.0 °F 60.1 °F 30% 29.86 in 10.0 mi ENE 17.3 mph - N/A   Clear
12:53 PM 97.0 °F 96.9 °F 60.1 °F 29% 29.86 in 10.0 mi East 18.4 mph - N/A   Clear
1:53 PM 93.9 °F 94.8 °F 62.1 °F 35% 29.87 in 10.0 mi NE 16.1 mph - N/A   Clear
2:53 PM 93.9 °F 97.0 °F 66.0 °F 40% 29.86 in 10.0 mi ENE 15.0 mph - 0.00 in   Clear
3:53 PM 93.9 °F 96.1 °F 64.9 °F 38% 29.85 in 10.0 mi ENE 11.5 mph - N/A   Clear
4:53 PM 93.0 °F 94.2 °F 63.0 °F 37% 29.83 in 10.0 mi ENE 13.8 mph - N/A   Partly Cloudy
5:53 PM 91.0 °F 92.6 °F 64.0 °F 41% 29.84 in 10.0 mi NE 19.6 mph - N/A   Clear
6:53 PM 88.0 °F 89.6 °F 64.9 °F 46% 29.84 in 10.0 mi NE 16.1 mph - N/A   Clear
7:53 PM 86.0 °F 86.8 °F 63.0 °F 46% 29.85 in 10.0 mi ENE 11.5 mph - N/A   Scattered Clouds
8:53 PM 81.0 °F 82.5 °F 64.0 °F 56% 29.87 in 10.0 mi ENE 6.9 mph - N/A   Partly Cloudy
9:53 PM 78.1 °F - 63.0 °F 60% 29.90 in 10.0 mi East 6.9 mph - N/A   Clear
10:53 PM 75.0 °F - 62.1 °F 64% 29.91 in 10.0 mi East 5.8 mph - N/A   Clear
11:53 PM 73.0 °F - 62.1 °F 68% 29.92 in 10.0 mi NE 8.1 mph - N/A   Clear